Year,Month,Day,Hour,Minute,Value (Times are PST for temperature in C)
2017,05,28,00,00,10.50
2017,05,28,00,01,10.40
2017,05,28,00,02,10.20
2017,05,28,00,03,10.10
2017,05,28,00,04,10.10
2017,05,28,00,05,10.00
2017,05,28,00,06,9.90
2017,05,28,00,07,9.80
2017,05,28,00,08,9.80
2017,05,28,00,09,9.70
2017,05,28,00,10,9.70
2017,05,28,00,11,9.60
2017,05,28,00,12,9.60
2017,05,28,00,13,9.60
2017,05,28,00,14,9.50
2017,05,28,00,15,9.50
2017,05,28,00,16,9.50
2017,05,28,00,17,9.50
2017,05,28,00,18,9.60
2017,05,28,00,19,9.60
2017,05,28,00,20,9.60
2017,05,28,00,21,9.60
2017,05,28,00,22,9.60
2017,05,28,00,23,9.60
2017,05,28,00,24,9.50
2017,05,28,00,25,9.50
2017,05,28,00,26,9.50
2017,05,28,00,27,9.50
2017,05,28,00,28,9.50
2017,05,28,00,29,9.60
2017,05,28,00,30,9.60
2017,05,28,00,31,9.70
2017,05,28,00,32,9.70
2017,05,28,00,33,9.80
2017,05,28,00,34,9.80
2017,05,28,00,35,9.80
2017,05,28,00,36,9.80
2017,05,28,00,37,9.80
2017,05,28,00,38,9.80
2017,05,28,00,39,9.80
2017,05,28,00,40,9.80
2017,05,28,00,41,9.80
2017,05,28,00,42,9.80
2017,05,28,00,43,9.80
2017,05,28,00,44,9.70
2017,05,28,00,45,9.70
2017,05,28,00,46,9.70
2017,05,28,00,47,9.70
2017,05,28,00,48,9.70
2017,05,28,00,49,9.70
2017,05,28,00,50,9.70
2017,05,28,00,51,9.60
2017,05,28,00,52,9.60
2017,05,28,00,53,9.50
2017,05,28,00,54,9.50
2017,05,28,00,55,9.40
2017,05,28,00,56,9.40
2017,05,28,00,57,9.30
2017,05,28,00,58,9.30
2017,05,28,00,59,9.30
2017,05,28,01,00,9.30
2017,05,28,01,01,9.30
2017,05,28,01,02,9.20
2017,05,28,01,03,9.20
2017,05,28,01,04,9.20
2017,05,28,01,05,9.20
2017,05,28,01,06,9.20
2017,05,28,01,07,9.10
2017,05,28,01,08,9.10
2017,05,28,01,09,9.10
2017,05,28,01,10,9.10
2017,05,28,01,11,9.10
2017,05,28,01,12,9.10
2017,05,28,01,13,9.10
2017,05,28,01,14,9.10
2017,05,28,01,15,9.10
2017,05,28,01,16,9.10
2017,05,28,01,17,9.00
2017,05,28,01,18,9.10
2017,05,28,01,19,9.10
2017,05,28,01,20,9.10
2017,05,28,01,21,9.10
2017,05,28,01,22,9.10
2017,05,28,01,23,9.10
2017,05,28,01,24,9.10
2017,05,28,01,25,9.10
2017,05,28,01,26,9.10
2017,05,28,01,27,9.00
2017,05,28,01,28,9.00
2017,05,28,01,29,9.00
2017,05,28,01,30,9.00
2017,05,28,01,31,9.00
2017,05,28,01,32,9.00
2017,05,28,01,33,8.90
2017,05,28,01,34,8.90
2017,05,28,01,35,8.90
2017,05,28,01,36,8.90
2017,05,28,01,37,8.90
2017,05,28,01,38,8.90
2017,05,28,01,39,8.90
2017,05,28,01,40,8.90
2017,05,28,01,41,8.90
2017,05,28,01,42,8.90
2017,05,28,01,43,8.90
2017,05,28,01,44,8.90
2017,05,28,01,45,8.90
2017,05,28,01,46,8.90
2017,05,28,01,47,8.90
2017,05,28,01,48,8.90
2017,05,28,01,49,8.90
2017,05,28,01,50,9.00
2017,05,28,01,51,9.00
2017,05,28,01,52,9.00
2017,05,28,01,53,9.00
2017,05,28,01,54,9.00
2017,05,28,01,55,9.00
2017,05,28,01,56,9.00
2017,05,28,01,57,9.00
2017,05,28,01,58,9.00
2017,05,28,01,59,8.90
2017,05,28,02,00,8.90
2017,05,28,02,01,8.90
2017,05,28,02,02,8.90
2017,05,28,02,03,8.90
2017,05,28,02,04,8.90
2017,05,28,02,05,8.90
2017,05,28,02,06,8.90
2017,05,28,02,07,8.90
2017,05,28,02,08,8.90
2017,05,28,02,09,8.80
2017,05,28,02,10,8.80
2017,05,28,02,11,8.80
2017,05,28,02,12,8.70
2017,05,28,02,13,8.70
2017,05,28,02,14,8.70
2017,05,28,02,15,8.70
2017,05,28,02,16,8.70
2017,05,28,02,17,8.70
2017,05,28,02,18,8.70
2017,05,28,02,19,8.70
2017,05,28,02,20,8.80
2017,05,28,02,21,8.80
2017,05,28,02,22,8.80
2017,05,28,02,23,8.80
2017,05,28,02,24,8.90
2017,05,28,02,25,8.90
2017,05,28,02,26,8.90
2017,05,28,02,27,8.90
2017,05,28,02,28,8.90
2017,05,28,02,29,8.90
2017,05,28,02,30,8.90
2017,05,28,02,31,8.90
2017,05,28,02,32,8.80
2017,05,28,02,33,8.80
2017,05,28,02,34,8.80
2017,05,28,02,35,8.80
2017,05,28,02,36,8.80
2017,05,28,02,37,8.80
2017,05,28,02,38,8.80
2017,05,28,02,39,8.80
2017,05,28,02,40,8.80
2017,05,28,02,41,8.70
2017,05,28,02,42,8.70
2017,05,28,02,43,8.70
2017,05,28,02,44,8.70
2017,05,28,02,45,8.70
2017,05,28,02,46,8.70
2017,05,28,02,47,8.70
2017,05,28,02,48,8.70
2017,05,28,02,49,8.80
2017,05,28,02,50,8.80
2017,05,28,02,51,8.70
2017,05,28,02,52,8.70
2017,05,28,02,53,8.70
2017,05,28,02,54,8.70
2017,05,28,02,55,8.70
2017,05,28,02,56,8.70
2017,05,28,02,57,8.60
2017,05,28,02,58,8.60
2017,05,28,02,59,8.60
2017,05,28,03,00,8.60
2017,05,28,03,01,8.50
2017,05,28,03,02,8.50
2017,05,28,03,03,8.50
2017,05,28,03,04,8.40
2017,05,28,03,05,8.40
2017,05,28,03,06,8.40
2017,05,28,03,07,8.40
2017,05,28,03,08,8.40
2017,05,28,03,09,8.40
2017,05,28,03,10,8.40
2017,05,28,03,11,8.40
2017,05,28,03,12,8.30
2017,05,28,03,13,8.30
2017,05,28,03,14,8.30
2017,05,28,03,15,8.30
2017,05,28,03,16,8.30
2017,05,28,03,17,8.30
2017,05,28,03,18,8.30
2017,05,28,03,19,8.30
2017,05,28,03,20,8.30
2017,05,28,03,21,8.30
2017,05,28,03,22,8.40
2017,05,28,03,23,8.40
2017,05,28,03,24,8.40
2017,05,28,03,25,8.40
2017,05,28,03,26,8.40
2017,05,28,03,27,8.40
2017,05,28,03,28,8.40
2017,05,28,03,29,8.40
2017,05,28,03,30,8.40
2017,05,28,03,31,8.40
2017,05,28,03,32,8.30
2017,05,28,03,33,8.30
2017,05,28,03,34,8.30
2017,05,28,03,35,8.20
2017,05,28,03,36,8.20
2017,05,28,03,37,8.20
2017,05,28,03,38,8.20
2017,05,28,03,39,8.20
2017,05,28,03,40,8.20
2017,05,28,03,41,8.20
2017,05,28,03,42,8.30
2017,05,28,03,43,8.30
2017,05,28,03,44,8.30
2017,05,28,03,45,8.20
2017,05,28,03,46,8.20
2017,05,28,03,47,8.20
2017,05,28,03,48,8.20
2017,05,28,03,49,8.20
2017,05,28,03,50,8.20
2017,05,28,03,51,8.10
2017,05,28,03,52,8.10
2017,05,28,03,53,8.10
2017,05,28,03,54,8.10
2017,05,28,03,55,8.10
2017,05,28,03,56,8.10
2017,05,28,03,57,8.10
2017,05,28,03,58,8.10
2017,05,28,03,59,8.10
2017,05,28,04,00,8.00
2017,05,28,04,01,8.00
2017,05,28,04,02,7.90
2017,05,28,04,03,7.90
2017,05,28,04,04,7.90
2017,05,28,04,05,7.80
2017,05,28,04,06,7.80
2017,05,28,04,07,7.80
2017,05,28,04,08,7.80
2017,05,28,04,09,7.80
2017,05,28,04,10,7.80
2017,05,28,04,11,7.80
2017,05,28,04,12,7.80
2017,05,28,04,13,7.70
2017,05,28,04,14,7.70
2017,05,28,04,15,7.70
2017,05,28,04,16,7.70
2017,05,28,04,17,7.70
2017,05,28,04,18,7.70
2017,05,28,04,19,7.70
2017,05,28,04,20,7.70
2017,05,28,04,21,7.70
2017,05,28,04,22,7.70
2017,05,28,04,23,7.70
2017,05,28,04,24,7.70
2017,05,28,04,25,7.70
2017,05,28,04,26,7.70
2017,05,28,04,27,7.80
2017,05,28,04,28,7.80
2017,05,28,04,29,7.90
2017,05,28,04,30,7.90
2017,05,28,04,31,7.90
2017,05,28,04,32,7.90
2017,05,28,04,33,8.00
2017,05,28,04,34,8.00
2017,05,28,04,35,8.10
2017,05,28,04,36,8.10
2017,05,28,04,37,8.10
2017,05,28,04,38,8.10
2017,05,28,04,39,8.10
2017,05,28,04,40,8.10
2017,05,28,04,41,8.10
2017,05,28,04,42,8.10
2017,05,28,04,43,8.10
2017,05,28,04,44,8.10
2017,05,28,04,45,8.10
2017,05,28,04,46,8.10
2017,05,28,04,47,8.20
2017,05,28,04,48,8.10
2017,05,28,04,49,8.20
2017,05,28,04,50,8.20
2017,05,28,04,51,8.20
2017,05,28,04,52,8.20
2017,05,28,04,53,8.20
2017,05,28,04,54,8.20
2017,05,28,04,55,8.20
2017,05,28,04,56,8.20
2017,05,28,04,57,8.20
2017,05,28,04,58,8.20
2017,05,28,04,59,8.30
2017,05,28,05,00,8.30
2017,05,28,05,01,8.30
2017,05,28,05,02,8.30
2017,05,28,05,03,8.30
2017,05,28,05,04,8.30
2017,05,28,05,05,8.30
2017,05,28,05,06,8.30
2017,05,28,05,07,8.30
2017,05,28,05,08,8.30
2017,05,28,05,09,8.30
2017,05,28,05,10,8.30
2017,05,28,05,11,8.30
2017,05,28,05,12,8.30
2017,05,28,05,13,8.30
2017,05,28,05,14,8.30
2017,05,28,05,15,8.20
2017,05,28,05,16,8.20
2017,05,28,05,17,8.20
2017,05,28,05,18,8.20
2017,05,28,05,19,8.20
2017,05,28,05,20,8.20
2017,05,28,05,21,8.10
2017,05,28,05,22,8.10
2017,05,28,05,23,8.10
2017,05,28,05,24,8.00
2017,05,28,05,25,8.00
2017,05,28,05,26,7.90
2017,05,28,05,27,7.90
2017,05,28,05,28,7.90
2017,05,28,05,29,7.90
2017,05,28,05,30,7.90
2017,05,28,05,31,7.80
2017,05,28,05,32,7.80
2017,05,28,05,33,7.80
2017,05,28,05,34,7.80
2017,05,28,05,35,7.80
2017,05,28,05,36,7.80
2017,05,28,05,37,7.80
2017,05,28,05,38,7.80
2017,05,28,05,39,7.80
2017,05,28,05,40,7.80
2017,05,28,05,41,7.80
2017,05,28,05,42,7.70
2017,05,28,05,43,7.70
2017,05,28,05,44,7.70
2017,05,28,05,45,7.70
2017,05,28,05,46,7.70
2017,05,28,05,47,7.70
2017,05,28,05,48,7.70
2017,05,28,05,49,7.70
2017,05,28,05,50,7.70
2017,05,28,05,51,7.70
2017,05,28,05,52,7.70
2017,05,28,05,53,7.70
2017,05,28,05,54,7.80
2017,05,28,05,55,7.80
2017,05,28,05,56,7.80
2017,05,28,05,57,7.80
2017,05,28,05,58,7.80
2017,05,28,05,59,7.80
2017,05,28,06,00,7.80
2017,05,28,06,01,7.80
2017,05,28,06,02,7.80
2017,05,28,06,03,7.80
2017,05,28,06,04,7.80
2017,05,28,06,05,7.80
2017,05,28,06,06,7.80
2017,05,28,06,07,7.80
2017,05,28,06,08,7.80
2017,05,28,06,09,7.80
2017,05,28,06,10,7.80
2017,05,28,06,11,7.80
2017,05,28,06,12,7.80
2017,05,28,06,13,7.80
2017,05,28,06,14,7.80
2017,05,28,06,15,7.80
2017,05,28,06,16,7.80
2017,05,28,06,17,7.80
2017,05,28,06,18,7.80
2017,05,28,06,19,7.80
2017,05,28,06,20,7.80
2017,05,28,06,21,7.80
2017,05,28,06,22,7.80
2017,05,28,06,23,7.80
2017,05,28,06,24,7.80
2017,05,28,06,25,7.80
2017,05,28,06,26,7.80
2017,05,28,06,27,7.90
2017,05,28,06,28,7.90
2017,05,28,06,29,7.90
2017,05,28,06,30,7.90
2017,05,28,06,31,7.90
2017,05,28,06,32,7.90
2017,05,28,06,33,7.90
2017,05,28,06,34,7.90
2017,05,28,06,35,8.00
2017,05,28,06,36,8.00
2017,05,28,06,37,8.00
2017,05,28,06,38,8.00
2017,05,28,06,39,8.00
2017,05,28,06,40,8.00
2017,05,28,06,41,8.00
2017,05,28,06,42,8.00
2017,05,28,06,43,8.00
2017,05,28,06,44,8.00
2017,05,28,06,45,8.00
2017,05,28,06,46,8.00
2017,05,28,06,47,8.00
2017,05,28,06,48,8.00
2017,05,28,06,49,8.00
2017,05,28,06,50,8.00
2017,05,28,06,51,8.10
2017,05,28,06,52,8.10
2017,05,28,06,53,8.10
2017,05,28,06,54,8.10
2017,05,28,06,55,8.10
2017,05,28,06,56,8.20
2017,05,28,06,57,8.20
2017,05,28,06,58,8.20
2017,05,28,06,59,8.20
2017,05,28,07,00,8.20
2017,05,28,07,01,8.30
2017,05,28,07,02,8.30
2017,05,28,07,03,8.30
2017,05,28,07,04,8.40
2017,05,28,07,05,8.40
2017,05,28,07,06,8.40
2017,05,28,07,07,8.40
2017,05,28,07,08,8.50
2017,05,28,07,09,8.50
2017,05,28,07,10,8.60
2017,05,28,07,11,8.60
2017,05,28,07,12,8.60
2017,05,28,07,13,8.60
2017,05,28,07,14,8.60
2017,05,28,07,15,8.60
2017,05,28,07,16,8.60
2017,05,28,07,17,8.60
2017,05,28,07,18,8.60
2017,05,28,07,19,8.70
2017,05,28,07,20,8.60
2017,05,28,07,21,8.60
2017,05,28,07,22,8.60
2017,05,28,07,23,8.60
2017,05,28,07,24,8.60
2017,05,28,07,25,8.60
2017,05,28,07,26,8.70
2017,05,28,07,27,8.70
2017,05,28,07,28,8.70
2017,05,28,07,29,8.80
2017,05,28,07,30,8.80
2017,05,28,07,31,8.90
2017,05,28,07,32,9.00
2017,05,28,07,33,9.10
2017,05,28,07,34,9.10
2017,05,28,07,35,9.10
2017,05,28,07,36,9.00
2017,05,28,07,37,9.00
2017,05,28,07,38,8.90
2017,05,28,07,39,8.90
2017,05,28,07,40,8.90
2017,05,28,07,41,8.90
2017,05,28,07,42,8.90
2017,05,28,07,43,9.00
2017,05,28,07,44,9.00
2017,05,28,07,45,9.00
2017,05,28,07,46,9.10
2017,05,28,07,47,9.10
2017,05,28,07,48,9.10
2017,05,28,07,49,9.20
2017,05,28,07,50,9.20
2017,05,28,07,51,9.30
2017,05,28,07,52,9.30
2017,05,28,07,53,9.30
2017,05,28,07,54,9.30
2017,05,28,07,55,9.30
2017,05,28,07,56,9.30
2017,05,28,07,57,9.30
2017,05,28,07,58,9.30
2017,05,28,07,59,9.30
2017,05,28,08,00,9.30
2017,05,28,08,01,9.30
2017,05,28,08,02,9.30
2017,05,28,08,03,9.30
2017,05,28,08,04,9.40
2017,05,28,08,05,9.40
2017,05,28,08,06,9.50
2017,05,28,08,07,9.60
2017,05,28,08,08,9.60
2017,05,28,08,09,9.60
2017,05,28,08,10,9.60
2017,05,28,08,11,9.60
2017,05,28,08,12,9.60
2017,05,28,08,13,9.60
2017,05,28,08,14,9.60
2017,05,28,08,15,9.70
2017,05,28,08,16,9.70
2017,05,28,08,17,9.70
2017,05,28,08,18,9.70
2017,05,28,08,19,9.70
2017,05,28,08,20,9.70
2017,05,28,08,21,9.80
2017,05,28,08,22,9.80
2017,05,28,08,23,9.80
2017,05,28,08,24,9.70
2017,05,28,08,25,9.70
2017,05,28,08,26,9.70
2017,05,28,08,27,9.70
2017,05,28,08,28,9.70
2017,05,28,08,29,9.70
2017,05,28,08,30,9.70
2017,05,28,08,31,9.90
2017,05,28,08,32,10.00
2017,05,28,08,33,10.10
2017,05,28,08,34,10.10
2017,05,28,08,35,10.10
2017,05,28,08,36,10.10
2017,05,28,08,37,10.10
2017,05,28,08,38,10.10
2017,05,28,08,39,10.10
2017,05,28,08,40,10.20
2017,05,28,08,41,10.20
2017,05,28,08,42,10.20
2017,05,28,08,43,10.10
2017,05,28,08,44,10.10
2017,05,28,08,45,10.00
2017,05,28,08,46,10.00
2017,05,28,08,47,9.90
2017,05,28,08,48,9.90
2017,05,28,08,49,9.90
2017,05,28,08,50,9.90
2017,05,28,08,51,9.90
2017,05,28,08,52,10.00
2017,05,28,08,53,10.00
2017,05,28,08,54,10.10
2017,05,28,08,55,10.10
2017,05,28,08,56,10.20
2017,05,28,08,57,10.20
2017,05,28,08,58,10.30
2017,05,28,08,59,10.30
2017,05,28,09,00,10.30
2017,05,28,09,01,10.30
2017,05,28,09,02,10.30
2017,05,28,09,03,10.40
2017,05,28,09,04,10.40
2017,05,28,09,05,10.50
2017,05,28,09,06,10.50
2017,05,28,09,07,10.60
2017,05,28,09,08,10.70
2017,05,28,09,09,10.70
2017,05,28,09,10,10.80
2017,05,28,09,11,10.80
2017,05,28,09,12,10.90
2017,05,28,09,13,11.00
2017,05,28,09,14,11.10
2017,05,28,09,15,11.20
2017,05,28,09,16,11.30
2017,05,28,09,17,11.40
2017,05,28,09,18,11.50
2017,05,28,09,19,11.50
2017,05,28,09,20,11.50
2017,05,28,09,21,11.40
2017,05,28,09,22,11.40
2017,05,28,09,23,11.50
2017,05,28,09,24,11.60
2017,05,28,09,25,11.60
2017,05,28,09,26,11.70
2017,05,28,09,27,11.80
2017,05,28,09,28,11.90
2017,05,28,09,29,12.10
2017,05,28,09,30,12.30
2017,05,28,09,31,12.40
2017,05,28,09,32,12.60
2017,05,28,09,33,12.70
2017,05,28,09,34,12.80
2017,05,28,09,35,12.90
2017,05,28,09,36,13.10
2017,05,28,09,37,13.20
2017,05,28,09,38,13.30
2017,05,28,09,39,13.30
2017,05,28,09,40,13.40
2017,05,28,09,41,13.50
2017,05,28,09,42,13.60
2017,05,28,09,43,13.70
2017,05,28,09,44,13.70
2017,05,28,09,45,13.70
2017,05,28,09,46,13.80
2017,05,28,09,47,13.80
2017,05,28,09,48,13.50
2017,05,28,09,49,13.20
2017,05,28,09,50,12.90
2017,05,28,09,51,12.60
2017,05,28,09,52,12.40
2017,05,28,09,53,12.30
2017,05,28,09,54,12.20
2017,05,28,09,55,12.10
2017,05,28,09,56,12.10
2017,05,28,09,57,12.00
2017,05,28,09,58,11.90
2017,05,28,09,59,11.90
2017,05,28,10,00,11.90
2017,05,28,10,01,11.90
2017,05,28,10,02,11.90
2017,05,28,10,03,11.80
2017,05,28,10,04,11.70
2017,05,28,10,05,11.60
2017,05,28,10,06,11.60
2017,05,28,10,07,11.60
2017,05,28,10,08,11.60
2017,05,28,10,09,11.60
2017,05,28,10,10,11.60
2017,05,28,10,11,11.50
2017,05,28,10,12,11.60
2017,05,28,10,13,11.50
2017,05,28,10,14,11.50
2017,05,28,10,15,11.40
2017,05,28,10,16,11.40
2017,05,28,10,17,11.50
2017,05,28,10,18,11.60
2017,05,28,10,19,11.80
2017,05,28,10,20,11.80
2017,05,28,10,21,11.90
2017,05,28,10,22,11.90
2017,05,28,10,23,11.90
2017,05,28,10,24,11.90
2017,05,28,10,25,12.00
2017,05,28,10,26,12.10
2017,05,28,10,27,12.30
2017,05,28,10,28,12.40
2017,05,28,10,29,12.50
2017,05,28,10,30,12.60
2017,05,28,10,31,12.50
2017,05,28,10,32,12.50
2017,05,28,10,33,12.40
2017,05,28,10,34,12.30
2017,05,28,10,35,12.20
2017,05,28,10,36,12.20
2017,05,28,10,37,12.10
2017,05,28,10,38,12.00
2017,05,28,10,39,12.00
2017,05,28,10,40,11.90
2017,05,28,10,41,11.90
2017,05,28,10,42,11.80
2017,05,28,10,43,11.80
2017,05,28,10,44,11.80
2017,05,28,10,45,11.80
2017,05,28,10,46,11.80
2017,05,28,10,47,11.90
2017,05,28,10,48,11.80
2017,05,28,10,49,11.70
2017,05,28,10,50,11.70
2017,05,28,10,51,11.60
2017,05,28,10,52,11.40
2017,05,28,10,53,11.40
2017,05,28,10,54,11.50
2017,05,28,10,55,11.50
2017,05,28,10,56,11.50
2017,05,28,10,57,11.70
2017,05,28,10,58,11.80
2017,05,28,10,59,11.90
2017,05,28,11,00,11.90
2017,05,28,11,01,11.70
2017,05,28,11,02,11.40
2017,05,28,11,03,11.30
2017,05,28,11,04,11.20
2017,05,28,11,05,11.20
2017,05,28,11,06,11.10
2017,05,28,11,07,10.90
2017,05,28,11,08,10.90
2017,05,28,11,09,10.90
2017,05,28,11,10,10.90
2017,05,28,11,11,10.90
2017,05,28,11,12,11.00
2017,05,28,11,13,11.20
2017,05,28,11,14,11.30
2017,05,28,11,15,11.30
2017,05,28,11,16,11.30
2017,05,28,11,17,11.30
2017,05,28,11,18,11.20
2017,05,28,11,19,11.20
2017,05,28,11,20,11.20
2017,05,28,11,21,11.20
2017,05,28,11,22,11.20
2017,05,28,11,23,11.10
2017,05,28,11,24,11.10
2017,05,28,11,25,11.20
2017,05,28,11,26,11.40
2017,05,28,11,27,11.50
2017,05,28,11,28,11.60
2017,05,28,11,29,11.50
2017,05,28,11,30,11.50
2017,05,28,11,31,11.60
2017,05,28,11,32,11.60
2017,05,28,11,33,11.50
2017,05,28,11,34,11.60
2017,05,28,11,35,11.60
2017,05,28,11,36,11.70
2017,05,28,11,37,11.60
2017,05,28,11,38,11.60
2017,05,28,11,39,11.50
2017,05,28,11,40,11.50
2017,05,28,11,41,11.50
2017,05,28,11,42,11.50
2017,05,28,11,43,11.40
2017,05,28,11,44,11.50
2017,05,28,11,45,11.60
2017,05,28,11,46,11.50
2017,05,28,11,47,11.50
2017,05,28,11,48,11.40
2017,05,28,11,49,11.30
2017,05,28,11,50,11.30
2017,05,28,11,51,11.40
2017,05,28,11,52,11.50
2017,05,28,11,53,11.50
2017,05,28,11,54,11.60
2017,05,28,11,55,11.70
2017,05,28,11,56,11.60
2017,05,28,11,57,11.60
2017,05,28,11,58,11.60
2017,05,28,11,59,11.50
2017,05,28,12,00,11.60
2017,05,28,12,01,11.60
2017,05,28,12,02,11.60
2017,05,28,12,03,11.60
2017,05,28,12,04,11.70
2017,05,28,12,05,11.80
2017,05,28,12,06,11.90
2017,05,28,12,07,12.00
2017,05,28,12,08,12.10
2017,05,28,12,09,12.10
2017,05,28,12,10,12.10
2017,05,28,12,11,12.10
2017,05,28,12,12,12.10
2017,05,28,12,13,12.00
2017,05,28,12,14,11.90
2017,05,28,12,15,11.90
2017,05,28,12,16,11.90
2017,05,28,12,17,11.80
2017,05,28,12,18,11.90
2017,05,28,12,19,12.10
2017,05,28,12,20,12.00
2017,05,28,12,21,12.10
2017,05,28,12,22,12.30
2017,05,28,12,23,12.40
2017,05,28,12,24,12.40
2017,05,28,12,25,12.40
2017,05,28,12,26,12.40
2017,05,28,12,27,12.50
2017,05,28,12,28,12.50
2017,05,28,12,29,12.60
2017,05,28,12,30,12.70
2017,05,28,12,31,12.80
2017,05,28,12,32,12.80
2017,05,28,12,33,12.70
2017,05,28,12,34,12.70
2017,05,28,12,35,12.70
2017,05,28,12,36,12.60
2017,05,28,12,37,12.60
2017,05,28,12,38,12.50
2017,05,28,12,39,12.30
2017,05,28,12,40,12.20
2017,05,28,12,41,12.10
2017,05,28,12,42,12.10
2017,05,28,12,43,12.20
2017,05,28,12,44,12.20
2017,05,28,12,45,12.30
2017,05,28,12,46,12.40
2017,05,28,12,47,12.30
2017,05,28,12,48,12.30
2017,05,28,12,49,12.30
2017,05,28,12,50,12.30
2017,05,28,12,51,12.40
2017,05,28,12,52,12.50
2017,05,28,12,53,12.60
2017,05,28,12,54,12.60
2017,05,28,12,55,12.60
2017,05,28,12,56,12.60
2017,05,28,12,57,12.60
2017,05,28,12,58,12.70
2017,05,28,12,59,12.70
2017,05,28,13,00,12.80
2017,05,28,13,01,12.70
2017,05,28,13,02,12.70
2017,05,28,13,03,12.60
2017,05,28,13,04,12.70
2017,05,28,13,05,12.70
2017,05,28,13,06,12.60
2017,05,28,13,07,12.60
2017,05,28,13,08,12.60
2017,05,28,13,09,12.50
2017,05,28,13,10,12.30
2017,05,28,13,11,12.10
2017,05,28,13,12,12.00
2017,05,28,13,13,12.20
2017,05,28,13,14,12.40
2017,05,28,13,15,12.50
2017,05,28,13,16,12.50
2017,05,28,13,17,12.60
2017,05,28,13,18,12.60
2017,05,28,13,19,12.50
2017,05,28,13,20,12.50
2017,05,28,13,21,12.40
2017,05,28,13,22,12.40
2017,05,28,13,23,12.40
2017,05,28,13,24,12.40
2017,05,28,13,25,12.30
2017,05,28,13,26,12.30
2017,05,28,13,27,12.30
2017,05,28,13,28,12.40
2017,05,28,13,29,12.50
2017,05,28,13,30,12.60
2017,05,28,13,31,12.70
2017,05,28,13,32,12.70
2017,05,28,13,33,12.90
2017,05,28,13,34,13.00
2017,05,28,13,35,13.10
2017,05,28,13,36,13.00
2017,05,28,13,37,13.10
2017,05,28,13,38,13.10
2017,05,28,13,39,13.00
2017,05,28,13,40,13.10
2017,05,28,13,41,13.20
2017,05,28,13,42,13.20
2017,05,28,13,43,13.20
2017,05,28,13,44,13.10
2017,05,28,13,45,12.90
2017,05,28,13,46,12.90
2017,05,28,13,47,12.90
2017,05,28,13,48,13.10
2017,05,28,13,49,13.20
2017,05,28,13,50,13.30
2017,05,28,13,51,13.30
2017,05,28,13,52,13.20
2017,05,28,13,53,13.20
2017,05,28,13,54,13.30
2017,05,28,13,55,13.50
2017,05,28,13,56,13.60
2017,05,28,13,57,13.80
2017,05,28,13,58,13.90
2017,05,28,13,59,13.90
2017,05,28,14,00,13.90
2017,05,28,14,01,13.90
2017,05,28,14,02,13.90
2017,05,28,14,03,13.90
2017,05,28,14,04,13.90
2017,05,28,14,05,13.90
2017,05,28,14,06,13.70
2017,05,28,14,07,13.70
2017,05,28,14,08,13.70
2017,05,28,14,09,13.60
2017,05,28,14,10,13.40
2017,05,28,14,11,13.30
2017,05,28,14,12,13.40
2017,05,28,14,13,13.50
2017,05,28,14,14,13.60
2017,05,28,14,15,13.60
2017,05,28,14,16,13.60
2017,05,28,14,17,13.60
2017,05,28,14,18,13.70
2017,05,28,14,19,13.80
2017,05,28,14,20,13.90
2017,05,28,14,21,13.90
2017,05,28,14,22,13.90
2017,05,28,14,23,13.90
2017,05,28,14,24,13.80
2017,05,28,14,25,13.80
2017,05,28,14,26,13.80
2017,05,28,14,27,13.80
2017,05,28,14,28,13.80
2017,05,28,14,29,13.80
2017,05,28,14,30,13.80
2017,05,28,14,31,13.80
2017,05,28,14,32,13.80
2017,05,28,14,33,13.80
2017,05,28,14,34,13.80
2017,05,28,14,35,13.90
2017,05,28,14,36,14.10
2017,05,28,14,37,14.20
2017,05,28,14,38,14.10
2017,05,28,14,39,13.90
2017,05,28,14,40,13.70
2017,05,28,14,41,13.40
2017,05,28,14,42,13.10
2017,05,28,14,43,12.90
2017,05,28,14,44,12.70
2017,05,28,14,45,12.60
2017,05,28,14,46,12.60
2017,05,28,14,47,12.80
2017,05,28,14,48,12.80
2017,05,28,14,49,12.90
2017,05,28,14,50,12.90
2017,05,28,14,51,12.80
2017,05,28,14,52,12.70
2017,05,28,14,53,12.50
2017,05,28,14,54,12.20
2017,05,28,14,55,11.90
2017,05,28,14,56,11.70
2017,05,28,14,57,11.60
2017,05,28,14,58,11.50
2017,05,28,14,59,11.70
2017,05,28,15,00,11.70
2017,05,28,15,01,11.80
2017,05,28,15,02,12.00
2017,05,28,15,03,12.20
2017,05,28,15,04,12.40
2017,05,28,15,05,12.70
2017,05,28,15,06,12.90
2017,05,28,15,07,13.10
2017,05,28,15,08,13.30
2017,05,28,15,09,13.40
2017,05,28,15,10,13.60
2017,05,28,15,11,13.70
2017,05,28,15,12,13.60
2017,05,28,15,13,13.60
2017,05,28,15,14,13.50
2017,05,28,15,15,13.40
2017,05,28,15,16,13.40
2017,05,28,15,17,13.40
2017,05,28,15,18,13.50
2017,05,28,15,19,13.60
2017,05,28,15,20,13.60
2017,05,28,15,21,13.70
2017,05,28,15,22,13.70
2017,05,28,15,23,13.70
2017,05,28,15,24,13.70
2017,05,28,15,25,13.70
2017,05,28,15,26,13.70
2017,05,28,15,27,13.70
2017,05,28,15,28,13.80
2017,05,28,15,29,14.00
2017,05,28,15,30,14.10
2017,05,28,15,31,14.10
2017,05,28,15,32,14.00
2017,05,28,15,33,13.80
2017,05,28,15,34,13.80
2017,05,28,15,35,13.80
2017,05,28,15,36,13.80
2017,05,28,15,37,13.90
2017,05,28,15,38,13.90
2017,05,28,15,39,13.80
2017,05,28,15,40,13.80
2017,05,28,15,41,13.90
2017,05,28,15,42,13.90
2017,05,28,15,43,13.90
2017,05,28,15,44,13.90
2017,05,28,15,45,13.70
2017,05,28,15,46,13.50
2017,05,28,15,47,13.40
2017,05,28,15,48,13.20
2017,05,28,15,49,13.10
2017,05,28,15,50,12.90
2017,05,28,15,51,12.70
2017,05,28,15,52,12.80
2017,05,28,15,53,12.90
2017,05,28,15,54,13.00
2017,05,28,15,55,13.20
2017,05,28,15,56,13.30
2017,05,28,15,57,13.30
2017,05,28,15,58,13.40
2017,05,28,15,59,13.50
2017,05,28,16,00,13.50
2017,05,28,16,01,13.60
2017,05,28,16,02,13.70
2017,05,28,16,03,13.80
2017,05,28,16,04,13.90
2017,05,28,16,05,14.00
2017,05,28,16,06,13.90
2017,05,28,16,07,13.80
2017,05,28,16,08,13.70
2017,05,28,16,09,13.70
2017,05,28,16,10,13.70
2017,05,28,16,11,13.60
2017,05,28,16,12,13.60
2017,05,28,16,13,13.70
2017,05,28,16,14,13.70
2017,05,28,16,15,13.70
2017,05,28,16,16,13.70
2017,05,28,16,17,13.80
2017,05,28,16,18,13.80
2017,05,28,16,19,13.90
2017,05,28,16,20,13.90
2017,05,28,16,21,14.00
2017,05,28,16,22,14.00
2017,05,28,16,23,14.10
2017,05,28,16,24,14.20
2017,05,28,16,25,14.40
2017,05,28,16,26,14.50
2017,05,28,16,27,14.60
2017,05,28,16,28,14.70
2017,05,28,16,29,14.60
2017,05,28,16,30,14.70
2017,05,28,16,31,14.80
2017,05,28,16,32,14.70
2017,05,28,16,33,14.40
2017,05,28,16,34,14.10
2017,05,28,16,35,13.90
2017,05,28,16,36,13.60
2017,05,28,16,37,13.60
2017,05,28,16,38,13.60
2017,05,28,16,39,13.60
2017,05,28,16,40,13.60
2017,05,28,16,41,13.60
2017,05,28,16,42,13.60
2017,05,28,16,43,13.50
2017,05,28,16,44,13.40
2017,05,28,16,45,13.40
2017,05,28,16,46,13.50
2017,05,28,16,47,13.70
2017,05,28,16,48,13.90
2017,05,28,16,49,14.10
2017,05,28,16,50,14.30
2017,05,28,16,51,14.40
2017,05,28,16,52,14.50
2017,05,28,16,53,14.50
2017,05,28,16,54,14.40
2017,05,28,16,55,14.40
2017,05,28,16,56,14.50
2017,05,28,16,57,14.60
2017,05,28,16,58,14.50
2017,05,28,16,59,14.30
2017,05,28,17,00,14.30
2017,05,28,17,01,14.20
2017,05,28,17,02,14.20
2017,05,28,17,03,14.20
2017,05,28,17,04,14.30
2017,05,28,17,05,14.40
2017,05,28,17,06,14.40
2017,05,28,17,07,14.60
2017,05,28,17,08,14.70
2017,05,28,17,09,14.80
2017,05,28,17,10,14.90
2017,05,28,17,11,14.90
2017,05,28,17,12,15.00
2017,05,28,17,13,15.10
2017,05,28,17,14,15.10
2017,05,28,17,15,15.20
2017,05,28,17,16,15.10
2017,05,28,17,17,15.10
2017,05,28,17,18,15.10
2017,05,28,17,19,14.90
2017,05,28,17,20,14.80
2017,05,28,17,21,14.60
2017,05,28,17,22,14.50
2017,05,28,17,23,14.50
2017,05,28,17,24,14.60
2017,05,28,17,25,14.70
2017,05,28,17,26,14.80
2017,05,28,17,27,14.90
2017,05,28,17,28,14.90
2017,05,28,17,29,15.00
2017,05,28,17,30,15.10
2017,05,28,17,31,15.10
2017,05,28,17,32,15.10
2017,05,28,17,33,15.00
2017,05,28,17,34,15.00
2017,05,28,17,35,15.00
2017,05,28,17,36,14.90
2017,05,28,17,37,14.90
2017,05,28,17,38,14.90
2017,05,28,17,39,14.80
2017,05,28,17,40,14.80
2017,05,28,17,41,14.80